User: anonymous   Login
Location: Unspecified
(0.0000°N, 0.0000°E)
Time: 08:54:19
(UTC+00:00)
Language:

TBA - TO BE ASSIGNED - Orbit

View from above orbital plane
View from above orbital plane
View from above satellite
View from above satellite

Ground track
Ground track

The orbit is defined by the following mean orbital elements,

1 68514U          26145.26588788 +.00000000 +00000-0 +11111-2 0 00004
2 68514  53.1572 133.2767 0001153  77.0067 283.1068 15.42178854    08
Epoch (UTC): 25 May 2026 06:22:52
Eccentricity: 0.0001153
inclination: 53.1572°
perigee height: 439 km
apogee height: 440 km
right ascension of ascending node: 133.2767°
argument of perigee: 77.0067°
revolutions per day: 15.42178854
mean anomaly at epoch: 283.1068°

The dashed part of the orbit path shows where the satellite is in the earth's shadow,  

DLR